Indianapolis, IN

9:22 PM EDT on September 22, 2019 (GMT -0400)
Indianapolis International

Weather History for KIND - May, 2019

Change the Weather History Date:

Thursday, May 16, 2019

  Actual Average Record
Temperature  
Mean Temperature 66 °F -  
Max Temperature 77 °F - 90 °F (1900)
Min Temperature 54 °F - 32 °F (1997)
Cooling Degree Days 1    
Month to date cooling degree days 4  
Year to date cooling degree days 5  
Growing Degree Days 16 (Base 50)    
Moisture  
Dew Point 58 °F    
Average Humidity 78    
Maximum Humidity 100    
Minimum Humidity 56    
Precipitation  
Precipitation 0.67 in - 1.60 in (1912)
Month to date precipitation 2.01  
Year to date precipitation 19.49  
Snow  
Snow 0.00 in - - ()
Month to date snowfall 0.0  
Snow Depth 0.00 in    
Sea Level Pressure  
Sea Level Pressure 29.90 in    
Wind  
Wind Speed 10 mph (SSW)    
Max Wind Speed 31 mph    
Max Gust Speed 42 mph    
Visibility 7 miles    
Events Rain , Thunderstorm    
T = Trace of Precipitation, MM = Missing Value Source: NWS Daily Summary

Daily Weather History Graph

Daily Weather History Graph

Search for Another Location

Airport or City:

Astronomy

May. 16, 2019 Rise Set
Actual Time 6:29 AM EDT 8:53 PM EDT
Civil Twilight 5:59 AM EDT 9:24 PM EDT
Nautical Twilight 5:21 AM EDT 10:02 PM EDT
Astronomical Twilight 4:39 AM EDT 10:44 PM EDT
Moon 6:33 PM EDT (5/16) 5:27 AM EDT (5/16)
Length of Visible Light 15h 24m
Length of Day
14h 23m
Waxing Gibbous, 94% of the Moon is Illuminated
May 16
Waxing Gibbous
May 18
Full
May 26
Last Quarter
Jun 3
New
Jun 10
First Quarter

Hourly Weather History & Observations

Time (EDT) Temp. Dew Point Humidity Pressure Visibility Wind Dir Wind Speed Gust Speed Precip Events Conditions
12:54 AM 57.0 °F 53.1 °F 87% 29.96 in 10.0 mi SSW 6.9 mph - N/A   Clear
1:54 AM 55.9 °F 53.1 °F 90% 29.98 in 10.0 mi SW 8.1 mph - N/A   Clear
2:54 AM 55.0 °F 53.1 °F 93% 29.97 in 7.0 mi SW 6.9 mph - N/A   Clear
3:54 AM 54.0 °F 53.1 °F 97% 29.97 in 5.0 mi WSW 5.8 mph - N/A   Scattered Clouds
4:54 AM 54.0 °F 53.1 °F 97% 29.97 in 4.0 mi SW 4.6 mph - N/A   Scattered Clouds
5:54 AM 54.0 °F 54.0 °F 100% 29.97 in 3.0 mi SSW 5.8 mph - N/A   Scattered Clouds
6:37 AM 54.0 °F 54.0 °F 100% 29.98 in 2.0 mi SSW 4.6 mph - N/A   Scattered Clouds
6:45 AM 55.0 °F 54.0 °F 96% 29.98 in 1.0 mi SSW 4.6 mph - N/A   Mostly Cloudy
6:54 AM 54.0 °F 54.0 °F 100% 29.98 in 1.0 mi SSW 5.8 mph - N/A   Mostly Cloudy
7:49 AM 55.4 °F 55.4 °F 100% 29.99 in 2.0 mi SW 4.6 mph - N/A   Mostly Cloudy
7:54 AM 57.0 °F 55.9 °F 96% 29.99 in 2.0 mi SW 4.6 mph - N/A   Mostly Cloudy
8:54 AM 61.0 °F 57.9 °F 90% 29.97 in 4.0 mi SSW 8.1 mph - N/A   Mostly Cloudy
9:09 AM 62.1 °F 59.0 °F 90% 29.98 in 5.0 mi SW 10.4 mph - N/A   Mostly Cloudy
9:54 AM 64.9 °F 60.1 °F 84% 29.96 in 8.0 mi SSW 10.4 mph - N/A   Mostly Cloudy
10:54 AM 69.1 °F 60.1 °F 73% 29.95 in 10.0 mi SSW 9.2 mph - N/A   Scattered Clouds
11:54 AM 71.1 °F 57.9 °F 63% 29.94 in 10.0 mi South 16.1 mph - N/A   Scattered Clouds
12:54 PM 73.9 °F 57.9 °F 57% 29.93 in 10.0 mi SSW 12.7 mph 23.0 mph N/A   Mostly Cloudy
1:54 PM 75.0 °F 59.0 °F 57% 29.89 in 10.0 mi SSW 15.0 mph - N/A   Mostly Cloudy
2:54 PM 77.0 °F 60.1 °F 56% 29.87 in 10.0 mi SSW 16.1 mph 23.0 mph N/A   Mostly Cloudy
3:54 PM 75.9 °F 60.1 °F 58% 29.85 in 10.0 mi South 16.1 mph - N/A   Mostly Cloudy
4:30 PM 73.9 °F 59.0 °F 59% 29.84 in 10.0 mi SSW 13.8 mph - N/A Thunderstorm Thunderstorm
4:54 PM 72.0 °F 62.1 °F 71% 29.82 in 7.0 mi SSW 18.4 mph 25.3 mph 0.00 in Rain , Thunderstorm Light Thunderstorms and Rain
5:36 PM 62.1 °F 57.9 °F 86% 29.92 in 1.0 mi North 31.1 mph 44.9 mph 0.00 in Rain , Thunderstorm Heavy Thunderstorms and Rain
5:54 PM 61.0 °F 61.0 °F 100% 29.88 in 1.8 mi North 8.1 mph 24.2 mph 0.58 in Rain , Thunderstorm Heavy Thunderstorms and Rain
6:02 PM 62.1 °F 60.1 °F 93% 29.83 in 7.0 mi ESE 16.1 mph - 0.07 in Rain , Thunderstorm Light Thunderstorms and Rain
6:18 PM 61.0 °F 60.1 °F 97% 29.83 in 10.0 mi ESE 11.5 mph - 0.08 in Rain , Thunderstorm Light Thunderstorms and Rain
6:48 PM 62.6 °F 60.8 °F 94% 29.84 in 10.0 mi ESE 8.1 mph - 0.08 in   Overcast
6:54 PM 62.1 °F 60.1 °F 93% 29.83 in 10.0 mi SE 9.2 mph - 0.08 in   Overcast
7:54 PM 63.0 °F 61.0 °F 93% 29.82 in 10.0 mi SE 9.2 mph - 0.01 in   Mostly Cloudy
8:54 PM 63.0 °F 60.1 °F 90% 29.80 in 10.0 mi SSE 10.4 mph - N/A   Mostly Cloudy
9:54 PM 63.0 °F 59.0 °F 87% 29.79 in 10.0 mi SSE 11.5 mph - N/A   Scattered Clouds
10:54 PM 63.0 °F 59.0 °F 87% 29.79 in 10.0 mi South 5.8 mph - N/A   Mostly Cloudy
11:54 PM 62.1 °F 60.1 °F 93% 29.75 in 10.0 mi South 9.2 mph - N/A   Scattered Clouds